Home   Weather   Tampa   Past weeks

Flag for USA Past Weather in Tampa, Florida, USA — Yesterday and Last 2 Weeks

Now
86 °F

Passing clouds.


Feels Like: 102 °F
Forecast: 79 / 93 °F
Wind: No wind

Location: Tampa, Peter O Knight Airport

Current Time: Jul 24, 2017 at 10:58:13 pm

Latest Report: Jul 24, 2017 at 10:35 pm


Visibility: 10 mi

Pressure: 30.09 "Hg

Humidity: 84%

Dew Point: 81 °F

Location of TampaLocation

Past Weather in Tampa — Graph

°F

Tampa Temperature Yesterday

Maximum temperature yesterday: 82 °F (at 12:15 am)
Minimum temperature yesterday: 77 °F (at 10:35 am)
Average temperature yesterday: 81 °F

High & Low Weather Summary for the Past Weeks

 TemperatureHumidityPressure
High97 °F (Jul 10, 4:35 pm)100% (Jul 10, 6:35 pm)30.14 "Hg (Jul 10, 6:35 pm)
Low73 °F (Jul 10, 6:35 pm)47% (Jul 10, 4:35 pm)29.93 "Hg (Jul 16, 5:15 pm)
Average83 °F86%30.07 "Hg
* Reported Jul 9 9:15 pm — Jul 24 9:35 pm, Tampa. Weather by CustomWeather, © 2017

Note: Actual official high and low records may vary slightly from our data, if they occured in-between our weather recording intervals... More about our weather records

Advertising

Tampa Weather History for the Previous 24 Hours

Scroll right to see more
 ConditionsComfort  
Time TempWeatherWind HumidityBarometerVisibility
9:35 pm
Mon, Jul 24
86 °FPassing clouds.No wind79%30.08 "Hg10 mi
9:15 pm86 °FPassing clouds.3 mph79%30.07 "Hg10 mi
8:55 pm86 °FPassing clouds.3 mph79%30.07 "Hg10 mi
8:15 pm88 °FPartly sunny.5 mph75%30.06 "Hg10 mi
7:55 pm88 °FPartly sunny.3 mph70%30.05 "Hg10 mi
7:35 pm90 °FBroken clouds.5 mph71%30.05 "Hg10 mi
7:15 pm90 °FMostly cloudy.6 mph71%30.04 "Hg10 mi
6:55 pm90 °FBroken clouds.6 mph71%30.04 "Hg10 mi
6:35 pm90 °FOvercast.6 mph71%30.04 "Hg10 mi
6:15 pm90 °FOvercast.8 mph71%30.05 "Hg10 mi
5:55 pm90 °FPartly sunny.9 mph75%30.05 "Hg10 mi
5:35 pm90 °FPartly sunny.9 mph71%30.05 "Hg10 mi
5:15 pm90 °FScattered clouds.8 mph71%30.05 "Hg10 mi
4:55 pm90 °FScattered clouds.9 mph71%30.05 "Hg10 mi
4:35 pm91 °FBroken clouds.10 mph71%30.05 "Hg10 mi
4:15 pm90 °FCloudy.12 mph75%30.05 "Hg10 mi
3:55 pm90 °FBroken clouds.9 mph71%30.05 "Hg10 mi
3:35 pm91 °FMore clouds than sun.10 mph67%30.06 "Hg10 mi
2:55 pm91 °FBroken clouds.10 mph67%30.07 "Hg10 mi
2:35 pm91 °FSunny.9 mph67%30.07 "Hg10 mi
1:55 pm90 °FSunny.9 mph71%30.08 "Hg10 mi
1:35 pm90 °FSunny.10 mph71%30.08 "Hg10 mi
12:55 pm90 °FSunny.12 mph75%30.08 "Hg10 mi
12:35 pm90 °FSunny.12 mph75%30.09 "Hg10 mi
12:15 pm90 °FScattered clouds.9 mph79%30.09 "Hg10 mi
11:55 am90 °FScattered clouds.9 mph79%30.09 "Hg10 mi
11:15 am88 °FScattered clouds.8 mph84%30.09 "Hg10 mi
10:55 am88 °FScattered clouds.7 mph84%30.09 "Hg10 mi
10:35 am86 °FScattered clouds.7 mph89%30.09 "Hg10 mi
10:15 am86 °FScattered clouds.8 mph89%30.09 "Hg10 mi
9:55 am86 °FScattered clouds.8 mph100%30.09 "Hg10 mi
9:35 am86 °FScattered clouds.6 mph100%30.09 "Hg10 mi
8:55 am84 °FSunny.5 mph100%30.08 "Hg10 mi
8:35 am82 °FScattered clouds.5 mph100%30.07 "Hg10 mi
8:15 am82 °FScattered clouds.3 mph100%30.07 "Hg10 mi
7:55 am82 °FScattered clouds.No wind100%30.06 "Hg10 mi
7:35 am81 °FScattered clouds.5 mph100%30.06 "Hg10 mi
7:15 am81 °FBroken clouds.5 mph100%30.06 "Hg10 mi
6:35 am81 °FPassing clouds.3 mph100%30.04 "Hg10 mi
5:55 am81 °FPassing clouds.6 mph100%30.02 "Hg10 mi
5:35 am81 °FPassing clouds.5 mph100%30.01 "Hg10 mi
5:15 am81 °FPassing clouds.3 mph100%30.01 "Hg10 mi
4:55 am81 °FPassing clouds.5 mph100%30.01 "Hg10 mi
4:35 am81 °FPassing clouds.5 mph100%30.01 "Hg10 mi
4:15 am81 °FPassing clouds.5 mph100%30.01 "Hg10 mi
3:55 am81 °FPartly cloudy.7 mph100%30.01 "Hg10 mi
3:35 am81 °FPassing clouds.5 mph100%30.02 "Hg10 mi
2:55 am81 °FPassing clouds.6 mph100%30.03 "Hg10 mi
2:35 am81 °FPassing clouds.5 mph100%30.03 "Hg10 mi
1:55 am81 °FPassing clouds.5 mph100%30.02 "Hg10 mi
1:35 am81 °FPartly cloudy.5 mph100%30.04 "Hg10 mi
12:35 am81 °FPassing clouds.3 mph100%30.05 "Hg10 mi
12:15 am79 °FClear.3 mph100%30.05 "Hg10 mi
11:55 pm
Sun, Jul 23
81 °FClear.No wind100%30.05 "Hg10 mi
11:35 pm81 °FClear.No wind100%30.04 "Hg10 mi
10:55 pm82 °FPassing clouds.5 mph94%30.03 "Hg10 mi
10:35 pm82 °FPassing clouds.6 mph89%30.02 "Hg10 mi
10:15 pm82 °FPassing clouds.6 mph89%30.01 "Hg10 mi
Weather by CustomWeather, © 2017

See weather overviewHow to use our weather pages